Hourly Data Report for October 09, 2013

All times are specified in Local Standard Time (LST). Add 1 hour to adjust for Daylight Saving Time where and when it is observed.

GJOA HAVEN A
NUNAVUT

68°38'08.000" N
95°51'01.000" W
46.90 m
2302337
71597
YHK

Download Data

Hourly Data (October 2013)
Hourly Data Report for October 9, 2013
Temp Definition
°C
Dew Point Temp Definition
°C
Rel Hum Definition
%
Wind Dir Definition
10's deg

Wind Spd Definition
km/h
Visibility Definition
km
Stn Press Definition
kPa
Hmdx Definition


Wind Chill Definition


Weather Definition


TIME
00:00 Legend Double Dagger -7.3 -9.7 83 32 8 16.1 101.48   -11 LegendNANA
01:00 Legend Double Dagger -7.1 -9.4 84 32 5 16.1 101.44   -10 LegendNANA
02:00 Legend Double Dagger -7.1 -9.2 85 32 11 16.1 101.43   -12 LegendNANA
03:00 Legend Double Dagger -7.1 -9.1 86 35 9 16.1 101.42   -11 LegendNANA
04:00 Legend Double Dagger -7.0 -9.0 86 34 5 16.1 101.38   -10 LegendNANA
05:00 Legend Double Dagger -6.8 -8.9 85 2 5 16.1 101.34   -9 LegendNANA
06:00 Legend Double Dagger -6.7 -8.8 85 7 9 16.1 101.29   -11 LegendNANA
07:00 Legend Double Dagger -6.7 -8.7 86 6 5 16.1 101.25   -9 LegendNANA
08:00 Legend Double Dagger -6.2 -9.0 80 19 13 16.1 101.21   -12 LegendNANA
09:00 Legend Double Dagger -5.7 -8.3 82 19 11 14.5 101.17   -10 LegendNANA
10:00 Legend Double Dagger -5.8 -8.1 84 16 18 16.1 101.13   -12 LegendNANA
11:00 Legend Double Dagger -6.1 -8.6 83 19 15 9.7 101.10   -12 LegendNANA
12:00 Legend Double Dagger -6.3 -8.8 82 16 21 9.7 101.07   -13 LegendNANA
13:00 Legend Double Dagger -6.4 -8.3 86 17 17 12.9 101.04   -13 LegendNANA
14:00 Legend Double Dagger -6.2 -8.5 84 17 18 16.1 101.00   -13 LegendNANA
15:00 Legend Double Dagger -6.0 -7.8 87 15 21 16.1 100.95   -13 LegendNANA
16:00 Legend Double Dagger -5.3 -6.5 91 16 21 16.1 100.89   -12 LegendNANA
17:00 Legend Double Dagger -5.2 -6.7 89 17 24 16.1 100.81   -12 LegendNANA
18:00 Legend Double Dagger -5.3 -7.2 87 16 26 16.1 100.79   -13 LegendNANA
19:00 Legend Double Dagger -5.3 -6.5 91 16 22 16.1 100.79   -12 LegendNANA
20:00 Legend Double Dagger -5.1 -6.6 89 18 22 16.1 100.77   -12 LegendNANA
21:00 Legend Double Dagger -4.9 -6.4 89 17 24 16.1 100.73   -12 LegendNANA
22:00 Legend Double Dagger -4.7 -6.1 90 16 22 16.1 100.71   -12 LegendNANA
23:00 Legend Double Dagger -4.2 -6.0 87 18 28 16.1 100.72   -12 LegendNANA

Notes on Data Quality.

Legend

  • E = Estimated
  • M = Missing
  • NA = Not Available
  • ‡ = Partner data that is not subject to review by the National Climate Archives
Date modified: